Weather History for Camdenton, MO

Change the Weather History Date:

Tuesday, March 18, 2014

  Actual Average (KAIZ) Record (KAIZ)
Temperature  
Mean Temperature 50 °F -  
Max Temperature 62 °F 54 °F 80 °F (2012)
Min Temperature 37 °F 34 °F 23 °F (2001)
Degree Days  
Heating Degree Days 16    
Moisture  
Dew Point 36 °F    
Average Humidity 62    
Maximum Humidity 87    
Minimum Humidity 37    
Precipitation  
Precipitation 0.04 in - - ()
Sea Level Pressure  
Sea Level Pressure 29.61 in    
Wind  
Wind Speed 13 mph (SE)    
Max Wind Speed 24 mph    
Max Gust Speed 32 mph    
Visibility 10 miles    
Events Rain , Thunderstorm    
Averages and records for this station are not official NWS values.
T = Trace of Precipitation, MM = Missing Value Source: NWS Daily Summary

Daily Weather History Graph

Daily Weather History Graph

Search for Another Location

Airport:

Trip Planner

Search our weather history database for the weather conditions in past years. The results will help you decide how hot, cold, wet, or windy it might be!

Date:

Astronomy

Mar. 18, 2014 Rise Set
Actual Time 7:17 AM CDT 7:20 PM CDT
Civil Twilight 6:51 AM CDT 7:47 PM CDT
Nautical Twilight 6:20 AM CDT 8:17 PM CDT
Astronomical Twilight 5:49 AM CDT 8:48 PM CDT
Moon 9:35 PM CDT (3/18) 8:09 AM CDT (3/18)
Length of Visible Light 12h 55m
Length of Day
12h 03m
Waning Gibbous, 96% of the Moon is Illuminated
Mar 18
Waning Gibbous
Mar 23
Last Quarter
Mar 30
New
Apr 7
First Quarter
Apr 15
Full

Hourly Weather History & Observations

Time (CDT) Temp. Windchill Dew Point Humidity Pressure Visibility Wind Dir Wind Speed Gust Speed Precip Events Conditions
12:15 AM 39.2 °F 33.0 °F 28.4 °F 65% 29.72 in 10.0 mi SE 9.2 mph - N/A   Clear
12:35 AM 39.2 °F 32.5 °F 28.4 °F 65% 29.72 in 10.0 mi SE 10.4 mph - N/A   Clear
12:55 AM 39.2 °F 33.0 °F 30.2 °F 70% 29.72 in 10.0 mi SE 9.2 mph - N/A   Clear
1:15 AM 39.2 °F 33.0 °F 30.2 °F 70% 29.71 in 10.0 mi SE 9.2 mph - N/A   Clear
1:35 AM 37.4 °F 30.8 °F 32.0 °F 81% 29.71 in 10.0 mi SE 9.2 mph - N/A   Clear
1:55 AM 39.2 °F 33.0 °F 32.0 °F 75% 29.70 in 10.0 mi SE 9.2 mph - N/A   Clear
2:15 AM 39.2 °F 32.0 °F 32.0 °F 75% 29.70 in 10.0 mi SE 11.5 mph 17.3 mph N/A   Clear
2:35 AM 39.2 °F 32.0 °F 32.0 °F 75% 29.70 in 10.0 mi SE 11.5 mph - N/A   Clear
2:55 AM 39.2 °F 31.2 °F 32.0 °F 75% 29.69 in 10.0 mi SE 13.8 mph - N/A   Clear
3:15 AM 39.2 °F 31.6 °F 32.0 °F 75% 29.69 in 10.0 mi SE 12.7 mph - N/A   Clear
3:35 AM 37.4 °F 29.8 °F 32.0 °F 81% 29.68 in 10.0 mi SE 11.5 mph - N/A   Clear
3:55 AM 37.4 °F 29.8 °F 32.0 °F 81% 29.66 in 10.0 mi SE 11.5 mph 18.4 mph N/A   Clear
4:15 AM 37.4 °F 27.8 °F 33.8 °F 87% 29.65 in 10.0 mi SE 17.3 mph 24.2 mph N/A   Clear
4:35 AM 37.4 °F 28.2 °F 33.8 °F 87% 29.64 in 10.0 mi ESE 16.1 mph 21.9 mph N/A   Clear
4:55 AM 37.4 °F 28.5 °F 33.8 °F 87% 29.66 in 10.0 mi SE 15.0 mph 18.4 mph N/A   Clear
5:15 AM 37.4 °F 29.3 °F 33.8 °F 87% 29.65 in 10.0 mi SE 12.7 mph 16.1 mph N/A   Clear
5:35 AM 37.4 °F 29.3 °F 33.8 °F 87% 29.66 in 10.0 mi SE 12.7 mph 18.4 mph N/A   Clear
5:55 AM 37.4 °F 28.5 °F 33.8 °F 87% 29.64 in 10.0 mi ESE 15.0 mph 20.7 mph N/A   Clear
6:15 AM 37.4 °F 28.5 °F 33.8 °F 87% 29.64 in 10.0 mi SE 15.0 mph 18.4 mph N/A   Clear
6:35 AM 37.4 °F 28.5 °F 33.8 °F 87% 29.64 in 10.0 mi ESE 15.0 mph 21.9 mph N/A   Clear
6:55 AM 37.4 °F 28.2 °F 33.8 °F 87% 29.64 in 10.0 mi SE 16.1 mph 24.2 mph N/A   Clear
7:15 AM 37.4 °F 28.5 °F 33.8 °F 87% 29.65 in 10.0 mi SE 15.0 mph - N/A   Clear
7:35 AM 37.4 °F 28.5 °F 33.8 °F 87% 29.64 in 10.0 mi SE 15.0 mph 19.6 mph N/A   Clear
7:55 AM 37.4 °F 28.9 °F 33.8 °F 87% 29.64 in 10.0 mi SE 13.8 mph 23.0 mph N/A   Clear
8:15 AM 37.4 °F 27.2 °F 33.8 °F 87% 29.63 in 10.0 mi SE 19.6 mph 26.5 mph N/A   Clear
8:35 AM 39.2 °F 29.0 °F 33.8 °F 81% 29.62 in 10.0 mi SE 21.9 mph 25.3 mph N/A   Clear
8:55 AM 41.0 °F 31.9 °F 33.8 °F 76% 29.62 in 10.0 mi SE 19.6 mph 25.3 mph N/A   Clear
9:15 AM 42.8 °F 34.3 °F 33.8 °F 70% 29.62 in 10.0 mi SE 19.6 mph 27.6 mph N/A   Clear
9:35 AM 44.6 °F 37.2 °F 33.8 °F 66% 29.63 in 10.0 mi SE 17.3 mph 25.3 mph N/A   Clear
9:55 AM 46.4 °F 39.5 °F 35.6 °F 66% 29.63 in 10.0 mi SSE 17.3 mph 29.9 mph N/A   Clear
10:15 AM 46.4 °F 38.1 °F 35.6 °F 66% 29.62 in 10.0 mi SE 24.2 mph 29.9 mph N/A   Clear
10:35 AM 50.0 °F - 35.6 °F 58% 29.62 in 10.0 mi SE 12.7 mph 28.8 mph N/A   Clear
10:55 AM 50.0 °F - 35.6 °F 58% 29.61 in 10.0 mi SE 19.6 mph 26.5 mph N/A   Clear
11:15 AM 51.8 °F - 37.4 °F 58% 29.61 in 10.0 mi SE 15.0 mph 27.6 mph N/A   Clear
11:35 AM 51.8 °F - 35.6 °F 54% 29.60 in 10.0 mi SE 24.2 mph 32.2 mph N/A   Clear
11:55 AM 53.6 °F - 35.6 °F 51% 29.59 in 10.0 mi SE 19.6 mph 28.8 mph N/A   Clear
12:15 PM 55.4 °F - 37.4 °F 51% 29.59 in 10.0 mi SE 13.8 mph 25.3 mph N/A   Clear
12:35 PM 55.4 °F - 35.6 °F 47% 29.58 in 10.0 mi SE 17.3 mph 25.3 mph N/A   Clear
12:55 PM 57.2 °F - 37.4 °F 48% 29.57 in 10.0 mi SSE 13.8 mph 32.2 mph N/A   Clear
1:15 PM 59.0 °F - 37.4 °F 45% 29.57 in 10.0 mi SSE 15.0 mph 31.1 mph N/A   Clear
1:35 PM 59.0 °F - 35.6 °F 42% 29.57 in 10.0 mi South 20.7 mph 28.8 mph N/A   Clear
1:55 PM 59.0 °F - 37.4 °F 45% 29.55 in 10.0 mi SE 19.6 mph 31.1 mph N/A   Clear
2:15 PM 59.0 °F - 35.6 °F 42% 29.54 in 10.0 mi SE 20.7 mph 27.6 mph N/A   Clear
2:35 PM 59.0 °F - 37.4 °F 45% 29.52 in 10.0 mi SE 18.4 mph 27.6 mph N/A   Clear
2:55 PM 60.8 °F - 35.6 °F 39% 29.52 in 10.0 mi SE 19.6 mph 32.2 mph N/A   Clear
3:15 PM 60.8 °F - 37.4 °F 42% 29.51 in 10.0 mi SSE 19.6 mph 27.6 mph N/A   Clear
3:35 PM 60.8 °F - 37.4 °F 42% 29.51 in 10.0 mi SE 13.8 mph 29.9 mph N/A   Clear
3:55 PM 62.6 °F - 37.4 °F 39% 29.52 in 10.0 mi South 13.8 mph 21.9 mph N/A   Clear
4:15 PM 62.6 °F - 37.4 °F 39% 29.52 in 10.0 mi SSE 13.8 mph 17.3 mph N/A   Clear
4:35 PM 62.6 °F - 37.4 °F 39% 29.52 in 10.0 mi SSE 17.3 mph 25.3 mph N/A   Clear
4:55 PM 62.6 °F - 35.6 °F 37% 29.52 in 10.0 mi South 16.1 mph 27.6 mph N/A   Clear
5:15 PM 62.6 °F - 35.6 °F 37% 29.52 in 10.0 mi South 15.0 mph 25.3 mph N/A   Clear
5:35 PM 60.8 °F - 37.4 °F 42% 29.53 in 10.0 mi SSE 16.1 mph 24.2 mph N/A   Clear
5:55 PM 62.6 °F - 37.4 °F 39% 29.54 in 10.0 mi South 13.8 mph 20.7 mph N/A   Mostly Cloudy
6:15 PM 60.8 °F - 37.4 °F 42% 29.54 in 10.0 mi SSE 10.4 mph - N/A   Overcast
6:35 PM 60.8 °F - 37.4 °F 42% 29.54 in 10.0 mi SSE 10.4 mph 16.1 mph N/A   Overcast
6:55 PM 60.8 °F - 37.4 °F 42% 29.54 in 10.0 mi SSE 11.5 mph - N/A   Overcast
7:15 PM 59.0 °F - 37.4 °F 45% 29.55 in 10.0 mi SE 8.1 mph - N/A   Overcast
7:35 PM 59.0 °F - 37.4 °F 45% 29.55 in 10.0 mi SE 9.2 mph - N/A   Scattered Clouds
7:55 PM 59.0 °F - 37.4 °F 45% 29.56 in 10.0 mi SE 10.4 mph - N/A   Scattered Clouds
8:15 PM 59.0 °F - 37.4 °F 45% 29.56 in 10.0 mi SE 13.8 mph - N/A   Mostly Cloudy
8:35 PM 59.0 °F - 39.2 °F 48% 29.57 in 10.0 mi SE 13.8 mph 18.4 mph N/A   Overcast
8:55 PM 59.0 °F - 39.2 °F 48% 29.58 in 10.0 mi SE 16.1 mph - N/A   Overcast
9:15 PM 57.2 °F - 39.2 °F 51% 29.57 in 10.0 mi SE 16.1 mph 20.7 mph N/A   Overcast
9:35 PM 53.6 °F - 42.8 °F 67% 29.59 in 7.0 mi SE 10.4 mph 25.3 mph 0.04 in Rain , Thunderstorm Thunderstorms and Rain
9:55 PM 51.8 °F - 42.8 °F 71% 29.60 in 10.0 mi SE 12.7 mph 16.1 mph 0.04 in Thunderstorm Mostly Cloudy
10:15 PM 53.6 °F - 42.8 °F 67% 29.61 in 10.0 mi SSE 11.5 mph 16.1 mph N/A   Mostly Cloudy
10:35 PM 53.6 °F - 42.8 °F 67% 29.62 in 10.0 mi South 10.4 mph 17.3 mph N/A   Mostly Cloudy
10:55 PM 53.6 °F - 42.8 °F 67% 29.63 in 10.0 mi South 10.4 mph 16.1 mph N/A   Scattered Clouds
11:15 PM 55.4 °F - 42.8 °F 63% 29.65 in 10.0 mi SSW 10.4 mph - N/A   Overcast
11:35 PM 55.4 °F - 39.2 °F 54% 29.65 in 10.0 mi SW 10.4 mph 16.1 mph N/A   Overcast
11:55 PM 55.4 °F - 37.4 °F 51% 29.66 in 10.0 mi SW 9.2 mph - N/A   Mostly Cloudy